• en Suisse
  • Liste des pays
  • À 7 jours
  • Température de l'eau
  • Carte satellitaire
  • Carte météo
  • Widgets météo
  • user-avatar
    Se connecter

    Météo par heure à Zahody

    Ce jour, 18 Août, Samedi

    Heure Température Précipitation Vent Pression Humidité
    00:00 +16°C° 0 mm 2 m/s 761 mmHg 89%
    01:00 +16°C° 0 mm 2 m/s 761 mmHg 90%
    02:00 +16°C° 0 mm 2 m/s 761 mmHg 92%
    03:00 +16°C° 0 mm 2 m/s 761 mmHg 93%
    04:00 +16°C° 0 mm 2 m/s 761 mmHg 94%
    05:00 +15°C° 0 mm 2 m/s 761 mmHg 95%
    06:00 +17°C° 0 mm 3 m/s 761 mmHg 90%
    07:00 +19°C° 0 mm 3 m/s 761 mmHg 85%
    08:00 +20°C° 0 mm 3 m/s 761 mmHg 80%
    09:00 +22°C° 0,1 mm 3 m/s 761 mmHg 75%
    10:00 +24°C° 0,1 mm 3 m/s 761 mmHg 71%
    11:00 +25°C° 0,1 mm 3 m/s 760 mmHg 66%
    12:00 +26°C° 0,2 mm 3 m/s 760 mmHg 64%
    13:00 +26°C° 0,2 mm 3 m/s 760 mmHg 62%
    14:00 +27°C° 0,2 mm 3 m/s 759 mmHg 60%
    15:00 +27°C° 0,2 mm 3 m/s 759 mmHg 62%
    16:00 +27°C° 0,2 mm 3 m/s 759 mmHg 65%
    17:00 +26°C° 0,2 mm 2 m/s 759 mmHg 67%
    18:00 +25°C° 0,1 mm 2 m/s 759 mmHg 75%
    19:00 +23°C° 0,1 mm 2 m/s 759 mmHg 82%
    20:00 +20°C° 0,1 mm 2 m/s 758 mmHg 89%
    21:00 +20°C° 0 mm 3 m/s 758 mmHg 91%
    22:00 +19°C° 0 mm 3 m/s 758 mmHg 93%
    23:00 +18°C° 0 mm 3 m/s 758 mmHg 94%

    Demain, 19 Août, Dimanche

    Heure Température Précipitation Vent Pression Humidité
    00:00 +18°C° 0 mm 3 m/s 758 mmHg 95%
    01:00 +18°C° 0 mm 2 m/s 758 mmHg 96%
    02:00 +17°C° 0 mm 2 m/s 758 mmHg 97%
    03:00 +17°C° 0 mm 2 m/s 758 mmHg 97%
    04:00 +17°C° 0 mm 2 m/s 758 mmHg 97%
    05:00 +16°C° 0 mm 2 m/s 758 mmHg 97%
    06:00 +17°C° 0 mm 3 m/s 758 mmHg 92%
    07:00 +18°C° 0 mm 3 m/s 758 mmHg 86%
    08:00 +19°C° 0 mm 3 m/s 758 mmHg 80%
    09:00 +20°C° 0 mm 4 m/s 758 mmHg 72%
    10:00 +21°C° 0 mm 4 m/s 758 mmHg 65%
    11:00 +22°C° 0 mm 4 m/s 758 mmHg 57%
    12:00 +23°C° 0 mm 4 m/s 758 mmHg 59%
    13:00 +23°C° 0 mm 4 m/s 757 mmHg 61%
    14:00 +23°C° 0 mm 5 m/s 757 mmHg 62%
    15:00 +22°C° 0,2 mm 4 m/s 757 mmHg 69%
    16:00 +21°C° 0,2 mm 4 m/s 757 mmHg 76%
    17:00 +20°C° 0,2 mm 3 m/s 757 mmHg 82%
    18:00 +20°C° 0 mm 3 m/s 757 mmHg 86%
    19:00 +19°C° 0 mm 3 m/s 757 mmHg 89%
    20:00 +18°C° 0 mm 3 m/s 757 mmHg 92%
    21:00 +18°C° 0 mm 3 m/s 757 mmHg 94%
    22:00 +17°C° 0 mm 3 m/s 757 mmHg 95%
    23:00 +17°C° 0 mm 3 m/s 757 mmHg 97%

    Après-demain, 20 Août, Lundi

    Heure Température Précipitation Vent Pression Humidité
    00:00 +16°C° 0 mm 2 m/s 757 mmHg 97%
    01:00 +16°C° 0 mm 2 m/s 757 mmHg 98%
    02:00 +16°C° 0 mm 2 m/s 757 mmHg 98%
    03:00 +16°C° 0 mm 2 m/s 757 mmHg 98%
    04:00 +16°C° 0 mm 2 m/s 757 mmHg 98%
    05:00 +16°C° 0 mm 2 m/s 757 mmHg 98%
    06:00 +16°C° 0,1 mm 2 m/s 757 mmHg 96%
    07:00 +17°C° 0,1 mm 2 m/s 757 mmHg 94%
    08:00 +18°C° 0,1 mm 2 m/s 757 mmHg 92%
    09:00 +19°C° 0 mm 3 m/s 757 mmHg 85%
    10:00 +20°C° 0 mm 3 m/s 757 mmHg 78%
    11:00 +21°C° 0 mm 3 m/s 756 mmHg 72%
    12:00 +21°C° 0,1 mm 3 m/s 756 mmHg 72%
    13:00 +21°C° 0,1 mm 3 m/s 756 mmHg 72%
    14:00 +22°C° 0,1 mm 3 m/s 755 mmHg 72%
    15:00 +21°C° 0,8 mm 3 m/s 755 mmHg 79%
    16:00 +20°C° 0,8 mm 3 m/s 755 mmHg 85%
    17:00 +19°C° 0,8 mm 2 m/s 754 mmHg 92%
    18:00 +19°C° 0,6 mm 3 m/s 754 mmHg 93%
    19:00 +19°C° 0,6 mm 3 m/s 753 mmHg 94%
    20:00 +18°C° 0,6 mm 3 m/s 753 mmHg 95%
    21:00 +18°C° 0,2 mm 4 m/s 752 mmHg 95%
    22:00 +18°C° 0,2 mm 4 m/s 751 mmHg 95%
    23:00 +17°C° 0,2 mm 5 m/s 750 mmHg 94%

    21 Août, Mardi

    Heure Température Précipitation Vent Pression Humidité
    00:00 +17°C° 0 mm 5 m/s 750 mmHg 94%
    01:00 +17°C° 0 mm 5 m/s 749 mmHg 93%
    02:00 +17°C° 0 mm 6 m/s 749 mmHg 93%
    03:00 +17°C° 1 mm 6 m/s 748 mmHg 93%
    04:00 +17°C° 1 mm 6 m/s 748 mmHg 94%
    05:00 +16°C° 1 mm 6 m/s 748 mmHg 94%
    06:00 +16°C° 0,6 mm 6 m/s 748 mmHg 93%
    07:00 +16°C° 0,6 mm 5 m/s 749 mmHg 93%
    08:00 +15°C° 0,6 mm 5 m/s 749 mmHg 92%
    09:00 +16°C° 0,1 mm 5 m/s 749 mmHg 84%
    10:00 +17°C° 0,1 mm 6 m/s 750 mmHg 76%
    11:00 +19°C° 0,1 mm 6 m/s 751 mmHg 68%
    12:00 +20°C° 0,1 mm 6 m/s 751 mmHg 62%
    13:00 +20°C° 0,1 mm 6 m/s 751 mmHg 56%
    14:00 +21°C° 0,1 mm 6 m/s 752 mmHg 50%
    15:00 +20°C° 0 mm 6 m/s 752 mmHg 52%
    16:00 +20°C° 0 mm 6 m/s 753 mmHg 54%
    17:00 +19°C° 0 mm 6 m/s 753 mmHg 57%
    18:00 +17°C° 0 mm 6 m/s 754 mmHg 61%
    19:00 +15°C° 0 mm 6 m/s 754 mmHg 66%
    20:00 +14°C° 0 mm 5 m/s 755 mmHg 71%
    21:00 +14°C° 0 mm 5 m/s 755 mmHg 72%
    22:00 +13°C° 0 mm 5 m/s 756 mmHg 74%
    23:00 +13°C° 0 mm 6 m/s 756 mmHg 75%

    22 Août, Mercredi

    Heure Température Précipitation Vent Pression Humidité
    00:00 +12°C° 0 mm 5 m/s 757 mmHg 77%
    01:00 +12°C° 0 mm 5 m/s 757 mmHg 79%
    02:00 +12°C° 0 mm 5 m/s 758 mmHg 80%
    03:00 +10°C° 0 mm 5 m/s 758 mmHg 81%
    04:00 +11°C° 0 mm 4 m/s 759 mmHg 82%
    05:00 +11°C° 0 mm 4 m/s 759 mmHg 83%
    06:00 +12°C° 0 mm 4 m/s 760 mmHg 76%
    07:00 +13°C° 0 mm 4 m/s 760 mmHg 69%
    08:00 +14°C° 0 mm 4 m/s 761 mmHg 62%
    09:00 +17°C° 0 mm 4 m/s 761 mmHg 58%
    10:00 +18°C° 0 mm 4 m/s 761 mmHg 53%
    11:00 +19°C° 0 mm 4 m/s 761 mmHg 49%
    12:00 +19°C° 0 mm 4 m/s 761 mmHg 47%
    13:00 +20°C° 0 mm 4 m/s 761 mmHg 46%
    14:00 +21°C° 0 mm 4 m/s 761 mmHg 45%
    15:00 +21°C° 0 mm 3 m/s 761 mmHg 47%
    16:00 +20°C° 0 mm 3 m/s 761 mmHg 50%
    17:00 +20°C° 0 mm 3 m/s 761 mmHg 53%
    18:00 +19°C° 0 mm 3 m/s 761 mmHg 58%
    19:00 +17°C° 0 mm 3 m/s 761 mmHg 64%
    20:00 +16°C° 0 mm 3 m/s 760 mmHg 70%
    21:00 +16°C° 0 mm 3 m/s 760 mmHg 71%
    22:00 +15°C° 0 mm 4 m/s 760 mmHg 72%
    23:00 +15°C° 0 mm 5 m/s 760 mmHg 73%

    23 Août, Jeudi

    Heure Température Précipitation Vent Pression Humidité
    00:00 +15°C° 0 mm 5 m/s 760 mmHg 74%
    01:00 +15°C° 0 mm 5 m/s 759 mmHg 76%
    02:00 +15°C° 0 mm 5 m/s 759 mmHg 77%
    03:00 +15°C° 0 mm 5 m/s 759 mmHg 79%
    04:00 +15°C° 0 mm 5 m/s 759 mmHg 80%
    05:00 +14°C° 0 mm 5 m/s 758 mmHg 81%
    06:00 +15°C° 0,4 mm 5 m/s 758 mmHg 80%
    07:00 +16°C° 0,4 mm 5 m/s 758 mmHg 79%
    08:00 +16°C° 0,4 mm 6 m/s 758 mmHg 78%
    09:00 +17°C° 0,5 mm 6 m/s 758 mmHg 77%
    10:00 +19°C° 0,5 mm 6 m/s 757 mmHg 77%
    11:00 +20°C° 0,5 mm 6 m/s 757 mmHg 76%
    12:00 +20°C° 0,1 mm 5 m/s 757 mmHg 78%
    13:00 +20°C° 0,1 mm 5 m/s 757 mmHg 80%
    14:00 +20°C° 0,1 mm 5 m/s 757 mmHg 81%
    15:00 +20°C° 0,1 mm 5 m/s 757 mmHg 83%
    16:00 +20°C° 0,1 mm 4 m/s 757 mmHg 84%
    17:00 +20°C° 0,1 mm 4 m/s 757 mmHg 85%
    18:00 +19°C° 0 mm 4 m/s 757 mmHg 88%
    19:00 +18°C° 0 mm 3 m/s 758 mmHg 92%
    20:00 +17°C° 0 mm 3 m/s 758 mmHg 95%
    21:00 +17°C° 0 mm 3 m/s 758 mmHg 96%
    22:00 +16°C° 0 mm 3 m/s 758 mmHg 97%
    23:00 +16°C° 0 mm 3 m/s 758 mmHg 97%
    Voir plus